When you browse on this site, cookies collect data to enhance your experience and personalize the content and advertising you see.
Visit our Privacy Policy to learn more. By continuing to use the site, you agree to this use of cookies and data.
  • In Czech Republic
  • List of Countries
  • For 7 days
  • Water Temperature
  • Weather Map
  • Weather Widgets
  • user-avatar
    Login

    Hourly Weather Kasaevo

    Today, 24 February, Monday

    Time Temperature Precipitation Wind Pressure Humidity
    00:00 -8°C° 0.6 mm 8 mps 745 mmHg 93%
    01:00 -8°C° 0.6 mm 8 mps 745 mmHg 94%
    02:00 -8°C° 0.6 mm 8 mps 744 mmHg 94%
    03:00 -8°C° 0.6 mm 8 mps 743 mmHg 94%
    04:00 -8°C° 0.6 mm 7 mps 743 mmHg 94%
    05:00 -8°C° 0.3 mm 7 mps 742 mmHg 93%
    06:00 -8°C° 0.3 mm 7 mps 741 mmHg 93%
    07:00 -8°C° 0.3 mm 7 mps 740 mmHg 92%
    08:00 -7°C° 0.3 mm 7 mps 740 mmHg 93%
    09:00 -7°C° 0.3 mm 7 mps 739 mmHg 93%
    10:00 -6°C° 0.3 mm 7 mps 739 mmHg 94%
    11:00 -6°C° 0.5 mm 7 mps 739 mmHg 95%
    12:00 -4°C° 0.5 mm 7 mps 738 mmHg 96%
    13:00 -3°C° 0.5 mm 7 mps 738 mmHg 97%
    14:00 -3°C° 0.5 mm 6 mps 738 mmHg 98%
    15:00 -3°C° 0.5 mm 6 mps 738 mmHg 98%
    16:00 -2°C° 0.5 mm 5 mps 738 mmHg 98%
    17:00 -2°C° 0.2 mm 5 mps 738 mmHg 97%
    18:00 -3°C° 0.2 mm 4 mps 738 mmHg 96%
    19:00 -3°C° 0.2 mm 4 mps 739 mmHg 95%
    20:00 -3°C° 0 mm 4 mps 739 mmHg 94%
    21:00 -3°C° 0 mm 4 mps 740 mmHg 92%
    22:00 -3°C° 0 mm 4 mps 740 mmHg 91%
    23:00 -3°C° 0 mm 4 mps 740 mmHg 91%

    Tomorrow, 25 February, Tuesday

    Time Temperature Precipitation Wind Pressure Humidity
    00:00 -3°C° 0 mm 4 mps 741 mmHg 91%
    01:00 -3°C° 0 mm 4 mps 741 mmHg 91%
    02:00 -3°C° 0 mm 4 mps 742 mmHg 92%
    03:00 -3°C° 0 mm 4 mps 742 mmHg 92%
    04:00 -3°C° 0 mm 4 mps 742 mmHg 93%
    05:00 -4°C° 0 mm 4 mps 742 mmHg 93%
    06:00 -4°C° 0 mm 4 mps 742 mmHg 93%
    07:00 -5°C° 0 mm 4 mps 742 mmHg 93%
    08:00 -5°C° 0 mm 4 mps 742 mmHg 93%
    09:00 -4°C° 0 mm 4 mps 742 mmHg 93%
    10:00 -5°C° 0 mm 5 mps 742 mmHg 92%
    11:00 -4°C° 0 mm 5 mps 741 mmHg 92%
    12:00 -4°C° 0 mm 5 mps 741 mmHg 93%
    13:00 -4°C° 0 mm 6 mps 740 mmHg 93%
    14:00 -3°C° 0.6 mm 6 mps 740 mmHg 95%
    15:00 -3°C° 0.6 mm 6 mps 740 mmHg 97%
    16:00 -3°C° 0.6 mm 6 mps 739 mmHg 98%
    17:00 -3°C° 0.9 mm 6 mps 739 mmHg 98%
    18:00 -3°C° 0.9 mm 6 mps 738 mmHg 98%
    19:00 -3°C° 0.9 mm 6 mps 738 mmHg 98%
    20:00 -2°C° 1.3 mm 5 mps 737 mmHg 98%
    21:00 -2°C° 1.3 mm 5 mps 737 mmHg 98%
    22:00 -2°C° 1.3 mm 4 mps 737 mmHg 98%
    23:00 -2°C° 1.2 mm 4 mps 736 mmHg 98%

    Day after tomorrow, 26 February, Wednesday

    Time Temperature Precipitation Wind Pressure Humidity
    00:00 -2°C° 1.2 mm 4 mps 736 mmHg 99%
    01:00 -1°C° 1.2 mm 3 mps 735 mmHg 99%
    02:00 -1°C° 0.7 mm 3 mps 735 mmHg 99%
    03:00 -1°C° 0.7 mm 2 mps 734 mmHg 99%
    04:00 +1°C° 0.7 mm 1 mps 734 mmHg 99%
    05:00 +1°C° 0.5 mm 1 mps 734 mmHg 99%
    06:00 +1°C° 0.5 mm 1 mps 734 mmHg 99%
    07:00 -1°C° 0.5 mm 2 mps 733 mmHg 99%
    08:00 -1°C° 0.3 mm 3 mps 734 mmHg 98%
    09:00 -2°C° 0.3 mm 4 mps 734 mmHg 98%
    10:00 -2°C° 0.3 mm 5 mps 735 mmHg 97%
    11:00 -3°C° 0 mm 6 mps 735 mmHg 95%
    12:00 -3°C° 0 mm 6 mps 736 mmHg 93%
    13:00 -4°C° 0 mm 7 mps 736 mmHg 90%
    14:00 -4°C° 0 mm 6 mps 737 mmHg 89%
    15:00 -4°C° 0 mm 6 mps 738 mmHg 88%
    16:00 -5°C° 0 mm 6 mps 739 mmHg 87%
    17:00 -6°C° 0 mm 5 mps 739 mmHg 88%
    18:00 -8°C° 0 mm 4 mps 740 mmHg 90%
    19:00 -9°C° 0 mm 4 mps 740 mmHg 92%
    20:00 -9°C° 0 mm 3 mps 741 mmHg 91%
    21:00 -10°C° 0 mm 3 mps 741 mmHg 90%
    22:00 -12°C° 0 mm 3 mps 742 mmHg 90%
    23:00 -12°C° 0 mm 3 mps 742 mmHg 89%

    27 February, Thursday

    Time Temperature Precipitation Wind Pressure Humidity
    00:00 -12°C° 0 mm 3 mps 742 mmHg 88%
    01:00 -12°C° 0 mm 3 mps 742 mmHg 86%
    02:00 -10°C° 0 mm 3 mps 742 mmHg 88%
    03:00 -10°C° 0 mm 4 mps 742 mmHg 90%
    04:00 -10°C° 0 mm 4 mps 742 mmHg 92%
    05:00 -8°C° 0.1 mm 5 mps 742 mmHg 93%
    06:00 -7°C° 0.1 mm 5 mps 741 mmHg 94%
    07:00 -6°C° 0.1 mm 5 mps 741 mmHg 96%
    08:00 -5°C° 0.2 mm 5 mps 741 mmHg 96%
    09:00 -4°C° 0.2 mm 5 mps 742 mmHg 97%
    10:00 -2°C° 0.2 mm 5 mps 742 mmHg 98%
    11:00 -1°C° 0 mm 5 mps 742 mmHg 99%
    12:00 -1°C° 0 mm 5 mps 743 mmHg 99%
    13:00 -1°C° 0 mm 5 mps 743 mmHg 99%
    14:00 -1°C° 0 mm 5 mps 744 mmHg 99%
    15:00 -1°C° 0 mm 4 mps 744 mmHg 99%
    16:00 -1°C° 0 mm 4 mps 745 mmHg 99%
    17:00 -1°C° 0 mm 4 mps 745 mmHg 99%
    18:00 0°C° 0 mm 3 mps 745 mmHg 99%
    19:00 0°C° 0 mm 3 mps 746 mmHg 99%
    20:00 0°C° 0 mm 3 mps 746 mmHg 99%
    21:00 -1°C° 0 mm 4 mps 747 mmHg 99%
    22:00 -1°C° 0 mm 4 mps 747 mmHg 99%
    23:00 -1°C° 0 mm 4 mps 747 mmHg 98%

    28 February, Friday

    Time Temperature Precipitation Wind Pressure Humidity
    00:00 -1°C° 0 mm 4 mps 747 mmHg 98%
    01:00 -1°C° 0 mm 4 mps 747 mmHg 97%
    02:00 -2°C° 0.1 mm 4 mps 747 mmHg 97%
    03:00 -2°C° 0.1 mm 4 mps 747 mmHg 97%
    04:00 -2°C° 0.1 mm 3 mps 747 mmHg 96%
    05:00 -2°C° 0.2 mm 4 mps 747 mmHg 97%
    06:00 -2°C° 0.2 mm 4 mps 746 mmHg 97%
    07:00 -2°C° 0.2 mm 5 mps 746 mmHg 97%
    08:00 -1°C° 0.5 mm 5 mps 746 mmHg 97%
    09:00 -2°C° 0.5 mm 6 mps 746 mmHg 97%
    10:00 -2°C° 0.5 mm 6 mps 745 mmHg 98%
    11:00 -2°C° 0 mm 6 mps 745 mmHg 98%
    12:00 -2°C° 0 mm 6 mps 746 mmHg 98%
    13:00 -2°C° 0 mm 6 mps 746 mmHg 98%
    14:00 -2°C° 0 mm 6 mps 746 mmHg 97%
    15:00 -2°C° 0 mm 6 mps 746 mmHg 95%
    16:00 -1°C° 0 mm 6 mps 746 mmHg 94%
    17:00 -2°C° 0 mm 6 mps 746 mmHg 91%
    18:00 -2°C° 0 mm 6 mps 746 mmHg 88%
    19:00 -2°C° 0 mm 6 mps 746 mmHg 86%
    20:00 -2°C° 0 mm 6 mps 746 mmHg 84%
    21:00 -2°C° 0 mm 6 mps 746 mmHg 83%
    22:00 -3°C° 0 mm 6 mps 746 mmHg 81%
    23:00 -3°C° 0 mm 6 mps 746 mmHg 81%

    29 February, Saturday

    Time Temperature Precipitation Wind Pressure Humidity
    00:00 -3°C° 0 mm 6 mps 746 mmHg 81%
    01:00 -3°C° 0 mm 6 mps 745 mmHg 81%
    02:00 -3°C° 0 mm 7 mps 745 mmHg 82%
    03:00 -3°C° 0 mm 7 mps 745 mmHg 83%
    04:00 -3°C° 0 mm 7 mps 745 mmHg 84%
    05:00 -5°C° 0 mm 8 mps 744 mmHg 84%
    06:00 -5°C° 0 mm 8 mps 744 mmHg 84%
    07:00 -5°C° 0 mm 8 mps 744 mmHg 84%
    08:00 -5°C° 0 mm 8 mps 743 mmHg 84%
    09:00 -5°C° 0 mm 8 mps 743 mmHg 84%
    10:00 -5°C° 0 mm 8 mps 743 mmHg 84%
    11:00 -5°C° 0 mm 8 mps 743 mmHg 85%
    12:00 -4°C° 0 mm 8 mps 743 mmHg 87%
    13:00 -4°C° 0 mm 8 mps 743 mmHg 89%
    14:00 -3°C° 0.3 mm 7 mps 743 mmHg 92%
    15:00 -3°C° 0.3 mm 7 mps 743 mmHg 94%
    16:00 -3°C° 0.3 mm 7 mps 743 mmHg 97%
    17:00 -3°C° 0.3 mm 6 mps 743 mmHg 97%
    18:00 -3°C° 0.3 mm 6 mps 744 mmHg 97%
    19:00 -2°C° 0.3 mm 5 mps 744 mmHg 97%
    20:00 -4°C° 0.3 mm 5 mps 744 mmHg 96%
    21:00 -3°C° 0.3 mm 4 mps 745 mmHg 94%
    22:00 -4°C° 0.3 mm 4 mps 745 mmHg 93%
    23:00 -5°C° 0 mm 4 mps 746 mmHg 92%
    Show more